User: anonymous   Login
Location: Unspecified
(0.0000°N, 0.0000°E)
Time: 14:49:05
(UTC+00:00)
Language:

HODOYOSHI 4 - Orbit

View from above orbital plane
View from above orbital plane
View from above satellite
View from above satellite

Ground track
Ground track

The orbit data is extracted from the following two-line orbital elements,

1 40011U 14033B   17206.26402526 +.00000085 +00000-0 +17788-4 0  9998
2 40011 097.8827 103.8628 0027333 144.3769 215.9274 14.80885891167397
Epoch (UTC): 25 July 2017 06:20:11
Eccentricity: 0.0027333
inclination: 97.8827°
perigee height: 607 km
apogee height: 645 km
right ascension of ascending node: 103.8628°
argument of perigee: 144.3769°
revolutions per day: 14.80885891
mean anomaly at epoch: 215.9274°
orbit number at epoch: 16739

The dashed part of the orbit path shows where the satellite is in the earth's shadow,  

DLR